Simultaneous Nadir Overpasses (SNOs) Predictions

Prediction of SNOs between FY3D and NOAA-19 Satellite Orbit:

Table of predicted SNOs for the next 14.0 days since TLE Epoch: 4/11/2020
Index Date (FY3D) Time (FY3D) Lat,Lon (FY3D) SZA (FY3D ) Date (NOAA-19) Time (NOAA-19) Lat,Lon (NOAA-19) SZA (NOAA-19 ) Distance(km) Time Diff (sec)
1 04/20/2020 20:11:34 -79.49, 24.00 110.70 04/20/2020 20:10:23 -79.48, 23.87 110.66 2.99 71
2 04/20/2020 21:02:19 79.49,-168.71 69.30 04/20/2020 21:01:25 79.51,-168.59 69.32 3.19 54
3 04/20/2020 21:53:03 -79.49, -1.35 110.73 04/20/2020 21:52:23 -79.50, -1.45 110.69 2.54 40
4 04/20/2020 22:43:48 79.49, 165.94 69.27 04/20/2020 22:43:26 79.50, 165.81 69.30 2.81 22
5 04/20/2020 23:34:33 -79.52, -26.97 110.70 04/20/2020 23:34:24 -79.49, -27.06 110.72 3.76 9
6 04/21/2020 00:25:18 79.52, 140.32 69.29 04/21/2020 00:25:26 79.52, 140.49 69.27 3.62 8
7 04/21/2020 01:16:02 -79.51, -52.32 110.73 04/21/2020 01:16:24 -79.51, -52.38 110.74 1.61 22
8 04/21/2020 02:06:47 79.52, 114.97 69.27 04/21/2020 02:07:27 79.51, 114.89 69.25 1.80 40
9 04/21/2020 02:57:31 -79.51, -77.67 110.76 04/21/2020 02:58:24 -79.52, -77.70 110.77 1.47 53
10 04/21/2020 03:48:16 79.52, 89.62 69.24 04/21/2020 03:49:27 79.53, 89.58 69.22 1.52 71




NCC Satellite Simultaneous Nadir Overpasses (SNOs) Prediction Service
